Wind_Speed
14 17 16 16 15 11 6 3 0 1 1 1 1 1 1 2 1 2 1 2 1 3 3 4 5 4 4 4 7 6 5 2 2 3 2 4 21 27 21 24 25 24 25 24 23 23 23 23 21 20 22 23 23 22 23 23 24 25 25 25 24 24 24 23 23 22 21 20 19 18 18 17 16 16 15 14 13 13 12 12 12 11 10 10 9 9 9 9 9 10 11 11 11 10 10 9 9
16 17 16 15 12 6 2 2 1 1 2 2 1 1 1 1 1 2 2 2 0 4 5 5 6 7 6 6 8 5 5 5 3 3 3 16 25 21 23 27 26 26 26 24 24 23 23 24 21 20 22 23 22 22 23 23 23 24 24 24 24 24 23 23 22 21 20 19 18 18 17 16 16 15 14 13 12 12 12 11 11 11 10 9 9 9 9 8 8 9 10 10 10 9 9 9 9
19 18 17 13 6 3 1 1 1 2 2 2 1 2 2 1 3 2 2 2 3 7 7 7 7 6 4 5 5 3 2 4 7 6 7 20 20 16 26 28 27 27 26 26 24 24 24 23 21 21 22 23 22 22 22 23 23 23 23 23 23 23 22 22 20 19 18 18 18 17 16 16 15 14 13 12 12 11 11 11 10 10 9 9 8 8 8 8 8 8 8 9 9 9 9 8 9
20 18 18 10 1 2 1 1 2 2 2 1 1 2 4 4 4 2 2 2 7 9 7 6 5 3 3 5 4 4 4 4 8 7 8 16 18 23 28 27 28 27 27 26 25 24 23 23 22 22 22 22 22 22 21 22 22 22 22 23 22 22 21 20 19 19 18 17 17 16 16 15 14 13 12 12 11 11 10 10 9 9 8 8 8 7 7 7 7 7 8 8 8 9 8 8 8
20 17 14 4 2 0 1 1 1 2 2 3 2 3 3 4 6 5 4 6 7 7 6 4 3 3 5 5 2 2 5 6 7 6 10 14 22 31 29 29 28 26 27 26 26 25 23 24 23 23 22 22 22 21 21 21 22 22 21 22 21 20 20 19 19 18 17 16 16 16 15 14 14 12 12 11 10 10 9 9 8 8 7 7 7 7 6 6 6 6 7 7 8 8 8 7 7
18 12 7 2 2 1 1 0 1 1 3 3 2 2 4 6 8 8 7 7 6 6 5 4 5 6 5 3 3 3 6 7 7 8 14 19 27 33 30 30 28 27 27 26 27 25 25 25 24 23 23 23 22 21 21 21 22 21 21 20 20 20 19 19 18 18 17 16 16 16 15 14 13 12 11 10 10 9 9 8 8 7 6 6 6 6 6 5 5 6 6 7 7 8 8 7 6
17 8 3 2 2 1 1 1 2 3 3 4 3 3 8 8 8 10 9 7 6 7 6 6 7 8 5 2 3 4 7 8 8 11 19 26 30 32 31 30 29 28 27 27 27 26 26 25 24 23 23 23 22 21 21 21 22 21 20 19 19 19 19 18 18 17 16 16 15 15 14 13 12 12 11 10 9 8 8 7 6 6 6 5 5 4 4 5 5 5 5 6 6 7 7 6 6
15 5 1 1 1 1 1 2 3 3 3 3 3 6 11 10 9 9 9 6 5 5 7 7 6 7 4 3 4 4 9 10 11 15 25 31 29 30 31 30 29 27 28 28 27 26 25 24 25 23 23 23 21 21 21 21 21 20 19 19 19 18 18 18 17 17 16 15 15 15 14 13 12 11 10 9 9 8 7 6 5 5 5 4 3 3 3 3 4 4 4 5 5 5 5 5 6
9 2 1 1 1 1 1 2 3 3 3 3 4 10 11 10 9 9 9 5 6 7 7 7 3 5 4 6 6 4 9 13 16 21 29 32 28 27 29 31 29 27 28 28 27 27 25 24 24 23 23 23 22 21 20 21 20 20 19 19 18 17 17 17 17 16 16 15 14 14 13 12 12 11 10 9 8 7 7 6 5 4 4 3 3 2 2 2 3 3 3 3 4 4 4 4 4
3 1 1 0 1 2 3 2 3 2 2 2 5 12 11 10 9 9 9 7 7 6 6 6 5 8 8 7 5 3 10 19 23 24 29 30 27 26 27 29 29 29 27 27 27 26 25 24 24 23 24 23 23 21 20 21 20 20 19 19 18 17 17 17 17 16 15 15 14 13 12 12 11 10 10 9 8 7 6 5 5 4 4 3 2 1 1 2 3 3 3 3 3 4 4 4 4
2 1 1 1 0 1 3 2 3 2 1 2 5 10 11 10 10 7 8 8 6 6 8 8 7 10 9 5 3 7 17 24 25 24 27 27 26 26 27 27 28 29 27 27 28 25 25 24 23 23 23 23 23 22 22 21 21 20 19 19 17 17 17 17 17 16 15 14 14 13 12 12 10 10 9 8 7 6 5 5 4 4 4 3 2 1 2 3 3 4 4 4 4 3 4 4 3
1 2 1 0 2 2 3 2 3 2 1 2 5 8 9 10 10 9 9 9 7 7 6 5 7 8 7 3 2 10 19 21 23 25 26 26 24 24 25 25 27 29 28 28 27 24 24 24 23 23 23 23 23 23 22 21 22 20 19 18 17 17 16 16 16 15 15 14 13 13 12 11 10 10 9 8 7 6 5 4 3 3 3 3 2 2 3 4 4 5 5 4 4 3 3 4 3
1 2 3 1 3 2 2 2 2 1 2 2 5 8 11 10 10 12 10 9 10 9 5 6 8 6 5 3 4 9 14 18 22 25 25 24 23 23 24 24 25 28 28 28 27 24 24 23 23 23 22 22 22 22 22 22 22 21 19 18 17 17 16 16 16 15 14 13 13 12 12 11 10 9 8 8 6 5 4 3 2 2 3 3 3 3 3 4 5 5 4 4 5 3 3 3 2
3 1 3 2 2 2 2 2 1 3 2 4 5 10 11 7 9 11 11 11 9 7 7 9 9 7 6 5 6 6 11 20 24 25 25 22 22 23 22 23 24 26 27 28 27 24 24 23 22 22 22 22 22 22 22 22 22 21 19 19 18 17 17 16 16 15 14 13 13 12 11 10 10 9 8 7 6 5 3 2 1 2 2 3 3 3 3 4 5 5 4 4 4 3 3 4 3
5 1 2 3 2 2 2 3 4 5 4 4 8 11 8 4 11 11 12 13 6 5 10 9 6 5 5 7 7 8 15 24 25 25 24 22 22 23 22 23 24 25 26 27 26 25 24 23 23 22 22 23 23 23 23 22 21 21 20 19 19 18 17 16 16 15 14 13 12 12 11 10 9 9 8 7 6 4 2 2 1 1 1 2 2 3 3 4 4 5 4 4 4 3 3 3 3
5 2 0 3 2 2 2 5 6 6 5 6 11 11 8 5 10 8 8 9 8 9 8 6 5 2 6 6 7 16 23 26 26 25 25 23 23 23 23 23 24 25 25 26 26 26 25 23 23 24 23 23 23 24 23 22 21 21 20 20 19 18 17 16 16 15 14 13 12 11 10 10 9 8 8 7 6 4 3 2 1 0 1 2 2 2 3 3 4 4 4 4 3 2 2 1 2
4 3 2 4 3 3 3 5 5 6 6 9 11 11 11 7 6 3 5 8 13 12 3 4 2 2 7 7 14 25 27 27 27 26 24 23 23 23 23 23 24 25 25 25 26 26 25 24 24 24 25 25 24 24 24 24 22 21 21 20 18 18 17 16 15 14 13 13 12 11 11 10 10 9 9 7 6 5 3 3 2 1 0 1 1 1 2 2 2 2 3 2 2 3 3 1 1
4 2 3 4 5 4 3 4 3 4 8 10 11 12 14 12 8 5 7 7 12 10 4 7 5 6 11 15 23 27 27 27 27 25 22 20 21 20 21 23 24 25 25 26 26 26 26 25 25 25 25 26 26 25 24 24 23 22 21 20 19 18 17 16 15 15 14 13 12 12 11 11 10 10 9 8 7 5 4 3 2 1 1 1 0 1 1 2 2 1 1 1 2 3 3 2 1
6 3 3 5 5 3 2 3 4 2 7 10 11 14 15 14 11 8 8 9 10 10 6 8 9 10 13 18 25 25 26 26 25 24 21 19 20 19 19 22 23 24 26 27 27 27 26 26 26 26 26 26 26 25 25 25 23 23 22 20 19 18 17 17 16 16 15 14 13 13 12 11 10 10 9 8 7 5 5 4 2 2 2 2 1 1 1 1 1 1 1 1 1 2 2 2 2
7 4 4 7 6 4 4 5 6 4 5 11 13 13 13 13 11 8 10 12 10 9 10 10 10 12 14 16 21 24 24 24 24 23 20 19 20 19 20 22 23 25 26 27 27 27 27 27 27 27 27 27 27 26 26 25 24 23 22 22 20 19 18 18 17 17 16 15 15 14 12 11 10 10 9 9 8 6 5 4 3 3 3 3 2 1 1 0 1 1 1 1 1 1 1 1 1
4 6 7 6 3 5 7 7 8 4 5 12 13 11 11 12 10 9 14 12 5 8 12 15 17 17 18 17 19 22 22 21 23 21 20 19 19 19 20 21 23 25 26 26 27 28 28 28 28 28 28 28 28 28 27 26 24 23 23 23 21 20 19 19 18 17 17 16 15 14 12 11 10 10 10 9 9 8 6 5 4 4 3 3 2 1 1 1 1 1 2 2 0 0 1 1 1
3 7 10 8 3 6 8 5 7 3 4 9 13 12 11 11 8 12 18 14 9 12 13 16 21 21 21 20 19 19 19 19 20 20 20 19 19 19 20 22 22 23 25 26 27 28 29 29 29 29 28 29 29 29 28 27 25 24 24 23 22 21 20 20 19 18 17 16 15 13 13 12 11 11 11 10 10 10 9 6 5 4 4 3 3 2 1 0 1 1 1 2 1 1 1 0 1
6 7 8 9 6 9 9 4 7 3 4 9 13 12 12 11 9 14 18 13 11 14 14 15 18 21 23 21 18 18 18 17 18 21 21 21 21 21 22 23 23 24 25 26 27 28 29 30 30 30 29 30 30 29 29 27 26 25 25 24 23 22 21 21 20 19 18 16 15 14 14 14 13 13 12 11 11 11 10 7 6 6 6 4 4 3 3 1 1 0 1 2 1 1 0 1 2
8 8 7 9 8 10 12 8 8 7 9 10 11 11 14 15 10 12 12 5 9 14 14 15 16 19 22 20 18 17 17 17 19 22 22 22 22 22 22 23 23 25 25 25 27 28 30 31 30 30 30 31 30 30 29 28 27 26 25 24 23 23 22 21 20 19 18 17 16 15 15 15 14 13 13 11 11 11 10 8 7 7 7 5 5 4 3 2 1 1 1 1 1 2 2 3 2
9 10 8 9 9 10 13 11 10 11 11 9 11 13 17 17 12 13 11 5 12 15 16 16 16 17 18 19 20 17 16 17 18 21 21 21 22 21 21 22 23 24 25 26 27 28 30 31 31 31 31 32 31 31 30 29 28 26 26 25 25 24 23 22 20 19 18 17 17 16 16 16 15 14 12 11 10 11 9 8 7 7 7 6 6 5 4 3 3 2 3 3 3 3 4 5 3
8 10 10 9 11 11 11 11 12 12 9 10 14 15 15 12 10 7 6 10 14 16 17 17 17 17 16 16 18 18 16 17 18 20 21 21 22 21 21 22 23 25 26 26 27 28 30 31 31 31 32 32 31 31 30 29 29 28 27 26 25 25 24 22 21 20 19 18 18 17 17 17 16 14 12 11 11 10 9 9 8 8 8 7 7 6 5 5 4 4 5 6 6 5 5 5 4
6 8 9 10 12 12 9 10 12 10 8 13 17 15 11 9 9 5 4 13 16 17 18 17 17 17 16 15 15 16 16 18 21 21 20 20 22 22 22 23 24 25 26 26 27 28 29 30 31 32 32 32 31 31 31 30 30 29 28 27 26 25 23 22 21 21 20 19 18 17 17 17 16 15 12 11 11 10 9 9 9 9 8 7 7 6 6 7 6 6 7 7 7 6 4 4 4
6 6 8 12 11 9 8 10 10 8 7 12 14 9 7 9 10 9 11 16 18 19 19 18 17 15 15 16 14 12 13 18 23 21 20 20 22 24 24 25 25 26 27 28 28 28 29 31 32 33 33 32 32 31 31 31 31 30 28 27 26 25 23 22 22 21 21 20 19 18 18 17 16 15 13 12 11 11 10 10 10 10 9 8 7 7 7 7 7 7 8 7 6 4 3 3 3
5 5 6 11 8 7 8 8 8 10 7 10 13 7 6 10 9 11 15 17 18 20 19 18 16 14 14 14 12 10 12 18 21 20 21 23 24 25 25 27 28 27 27 28 28 28 29 31 32 32 33 32 32 32 32 32 31 30 28 27 26 25 24 23 22 22 22 20 19 18 18 17 16 15 13 12 12 11 11 11 11 10 9 7 8 7 7 7 8 8 8 5 4 3 2 2 2
5 3 3 6 7 7 7 5 10 13 8 14 15 4 7 9 7 13 15 17 19 18 18 17 14 13 13 12 11 11 12 16 17 20 23 24 25 26 26 27 28 28 26 27 28 29 30 31 31 32 32 33 32 32 32 32 31 30 29 28 27 26 25 24 23 22 22 21 20 19 18 18 17 16 14 13 12 12 12 13 13 11 8 7 7 8 8 8 8 8 6 4 2 2 2 3 3
3 3 3 2 3 5 6 2 10 12 7 16 15 6 8 6 8 15 16 19 21 18 17 17 14 13 12 12 12 12 12 15 19 22 24 25 25 26 27 28 29 29 27 28 30 31 31 31 31 31 32 33 33 32 32 31 31 30 29 28 27 26 25 25 23 23 22 21 20 19 18 18 18 17 15 14 13 13 13 14 14 11 9 8 8 8 8 8 7 5 4 3 2 2 2 3 3
1 2 4 1 3 4 6 5 11 14 7 13 12 4 5 5 10 16 16 19 20 19 18 16 16 15 13 12 12 12 12 15 19 23 25 25 26 27 28 29 30 30 30 30 31 31 31 31 31 31 32 33 33 32 31 31 30 30 30 29 28 27 26 25 24 23 22 21 20 19 19 18 18 18 16 15 14 14 14 15 14 11 9 9 9 9 9 9 7 5 3 2 2 2 3 2 2
2 3 5 3 4 3 4 6 9 14 9 10 9 4 3 3 11 15 15 19 18 17 18 17 17 15 15 12 11 12 11 13 15 19 25 27 27 28 29 30 31 32 32 32 31 32 33 32 32 32 33 34 33 32 31 30 30 29 29 29 28 27 26 25 24 23 22 21 21 20 19 19 18 18 17 16 15 15 15 15 14 12 10 10 10 9 9 9 8 6 4 3 4 4 3 1 1
2 2 4 4 5 3 2 6 5 9 11 11 7 6 6 7 14 16 16 19 17 16 18 18 17 15 14 12 11 12 12 13 13 18 26 29 29 30 31 31 33 33 33 33 33 33 34 33 33 33 33 34 34 33 32 30 30 28 28 28 28 27 26 25 23 23 23 22 21 20 20 19 19 19 19 18 17 17 16 16 15 13 11 10 10 10 9 9 9 8 6 6 6 5 4 3 3
3 4 3 4 4 3 4 5 3 6 9 10 7 6 8 8 15 17 16 19 17 17 18 17 17 16 15 13 13 13 13 15 15 21 29 30 31 31 32 33 34 35 34 34 34 33 33 33 34 33 33 33 34 34 32 30 29 28 27 28 28 27 27 25 25 25 24 23 21 20 19 19 20 20 20 20 19 19 19 18 17 15 12 11 11 10 10 10 11 11 9 8 8 7 5 4 4
5 5 4 5 5 4 5 4 5 7 7 8 8 8 9 11 15 17 16 17 15 15 15 14 14 14 14 13 13 14 15 15 17 24 29 30 31 32 33 33 34 36 35 35 35 34 34 33 33 33 33 33 33 33 32 30 29 29 29 28 29 29 28 27 27 26 25 24 22 21 20 20 20 21 21 20 20 20 20 19 17 15 13 12 12 12 12 12 12 12 12 11 9 7 5 5 4
6 4 4 5 5 7 3 3 8 6 8 8 7 8 11 15 18 18 17 16 14 14 14 14 14 14 14 15 15 16 16 15 18 24 28 30 31 32 33 33 33 34 34 35 35 36 36 35 34 34 34 33 33 33 33 33 31 30 30 30 31 31 30 29 28 28 26 25 23 22 22 21 21 21 21 20 21 21 19 17 16 15 14 13 12 12 12 12 11 12 13 12 10 7 6 5 5
7 5 6 6 5 8 4 3 7 3 7 8 5 6 10 16 18 17 17 17 17 17 18 17 17 16 15 16 18 17 15 13 15 19 23 28 30 32 33 32 33 34 34 36 37 38 38 37 36 36 34 34 35 36 35 34 34 33 32 31 32 31 30 30 30 29 27 25 24 23 23 22 22 22 21 20 21 20 18 17 15 15 15 14 12 12 11 10 10 11 12 11 8 7 7 5 5
6 5 5 6 6 7 4 4 6 3 5 5 5 7 10 14 17 17 19 20 18 19 21 20 20 19 16 16 17 16 15 12 14 16 19 25 29 31 32 32 34 36 36 37 38 38 38 38 38 36 36 36 37 37 37 37 36 35 33 31 31 30 30 30 29 27 26 25 24 24 24 24 23 22 21 21 21 20 18 17 16 15 15 15 14 13 11 11 11 12 12 11 9 8 7 5 5
6 5 4 7 8 4 3 4 4 5 6 6 7 6 6 8 10 13 18 19 15 17 20 18 18 20 19 20 18 17 17 15 16 16 17 21 26 29 31 32 35 36 36 37 37 37 38 39 39 38 38 38 38 38 39 38 35 33 32 30 29 29 28 28 28 27 26 27 26 25 26 26 25 23 21 21 21 20 18 18 17 15 16 17 16 14 13 13 12 12 12 11 10 10 8 6 3
6 7 7 8 10 7 6 4 3 1 4 4 7 3 1 7 10 11 13 14 12 13 15 14 15 17 18 19 18 18 18 18 18 18 17 18 21 27 32 33 34 34 35 37 39 40 40 41 42 41 40 39 39 39 39 37 32 30 29 27 25 25 24 24 26 28 28 28 27 27 27 27 26 23 22 21 21 21 19 18 18 16 16 17 18 16 14 13 12 12 13 11 10 10 9 7 4
7 8 10 12 12 7 6 3 5 3 5 2 7 4 4 6 12 13 11 12 13 11 14 16 16 15 15 15 16 17 17 18 18 20 20 19 21 27 31 33 33 34 37 40 42 43 42 42 42 42 40 39 39 39 39 37 34 32 30 27 25 25 24 25 28 29 29 29 27 25 25 26 27 24 23 22 22 22 21 20 19 18 18 19 19 17 16 14 12 12 14 11 10 10 9 8 6
7 7 8 11 11 7 6 1 2 2 5 4 7 7 4 5 10 13 12 15 17 14 15 18 16 15 15 14 15 16 16 16 16 18 19 20 22 24 27 32 35 36 39 42 42 43 43 42 42 42 41 40 40 40 39 38 37 35 33 32 31 30 28 29 31 32 31 31 28 24 23 25 26 25 24 23 23 23 22 21 20 20 19 20 19 18 18 16 12 13 14 11 10 10 10 10 8
8 4 5 8 8 7 8 4 4 5 4 4 4 4 3 4 9 14 16 17 17 15 16 18 17 17 18 17 17 18 18 18 17 17 18 19 21 24 28 34 38 41 42 41 40 42 43 42 42 43 43 41 40 40 40 40 39 37 36 35 34 33 33 32 32 31 31 30 28 26 24 24 25 25 25 24 24 23 22 22 22 21 21 20 20 19 19 17 13 14 14 12 11 11 11 10 10
8 4 5 7 7 7 6 5 5 4 3 5 6 4 3 4 6 11 15 16 16 17 19 20 19 19 19 19 19 19 19 19 18 18 20 20 22 28 34 37 41 44 42 41 42 43 43 43 43 43 43 41 40 40 41 42 41 39 38 37 34 34 34 32 30 29 29 28 28 28 27 25 25 25 25 25 24 24 23 24 23 23 22 22 21 20 19 17 15 16 15 14 13 12 11 11 11
7 4 5 6 5 4 4 5 4 2 3 7 9 5 4 6 4 8 10 13 16 17 18 18 20 21 20 19 20 19 17 16 17 19 20 21 26 34 38 39 41 42 41 42 43 42 42 42 41 41 42 42 40 40 41 42 42 40 38 37 36 34 33 30 28 28 28 28 28 29 29 28 26 26 26 26 25 25 24 25 25 24 23 23 23 21 19 17 17 18 17 16 15 14 13 11 12
6 3 4 7 5 2 1 3 4 2 4 8 12 9 7 6 5 7 10 14 17 16 15 16 18 20 20 19 19 19 17 15 16 18 18 21 29 35 36 36 37 39 39 40 41 41 41 41 41 42 43 43 42 42 42 43 43 41 39 38 38 37 34 30 28 28 28 28 28 29 30 30 29 28 27 27 27 26 25 25 26 25 24 24 24 23 20 17 18 20 18 16 17 16 14 12 13
7 4 4 4 5 3 3 1 3 4 7 7 11 10 8 8 7 6 11 17 21 19 18 20 21 22 21 20 19 18 18 17 17 17 17 18 21 25 28 30 33 36 36 36 38 40 40 41 42 42 43 43 43 42 43 43 43 42 41 39 39 39 36 32 31 31 30 30 31 30 30 30 29 29 29 29 29 28 26 26 27 27 26 25 25 24 21 18 18 20 19 18 18 17 15 14 14
7 5 5 4 3 3 5 4 2 6 7 6 9 8 7 8 7 9 14 18 21 21 20 22 25 24 22 21 20 17 16 17 17 16 16 16 17 18 21 26 30 32 34 36 38 39 39 41 42 43 43 45 44 43 44 44 44 44 43 41 40 39 36 34 34 33 32 33 33 32 31 31 30 31 32 32 32 30 29 28 29 29 28 27 27 25 23 20 19 21 20 19 19 18 16 15 15
9 7 6 6 5 5 6 5 3 4 5 5 7 7 4 5 6 11 15 18 22 22 21 22 24 25 24 23 21 18 17 18 17 17 16 16 17 17 20 26 30 32 36 38 38 39 39 40 42 43 44 45 44 44 45 45 45 46 45 43 41 39 37 36 35 34 33 33 34 34 34 34 33 33 35 35 34 32 31 30 29 29 28 28 27 26 25 22 20 22 22 20 20 19 17 16 16
8 7 6 7 6 5 4 3 3 5 5 5 3 5 5 5 6 11 15 18 20 21 21 22 21 22 22 20 19 18 18 17 16 17 18 18 19 20 22 27 30 33 37 38 39 40 39 40 42 44 44 44 45 44 44 45 46 46 46 45 42 40 38 37 36 36 34 34 35 35 35 35 35 35 36 35 34 33 32 31 30 29 29 28 28 27 26 24 22 23 23 21 20 19 18 18 18
6 6 7 9 6 5 3 3 5 4 3 4 3 4 5 5 5 7 13 16 17 19 21 20 18 16 14 14 16 17 17 17 17 17 18 20 20 20 23 27 30 33 36 38 39 40 40 40 42 44 45 45 46 46 45 45 46 45 45 44 43 41 39 37 36 36 35 35 35 36 36 37 37 37 36 35 35 35 34 33 31 30 30 29 29 28 28 26 24 25 25 23 22 21 19 19 19
4 5 8 7 7 8 6 5 2 1 3 5 2 3 4 2 5 6 9 12 14 17 18 18 16 13 13 13 15 17 17 17 18 17 18 20 19 20 24 28 31 33 35 38 40 42 43 43 42 44 44 44 45 46 45 45 45 43 43 44 42 41 39 38 37 37 36 35 35 36 37 37 38 37 37 36 35 35 35 34 33 32 31 30 30 30 29 27 26 27 28 26 24 22 21 20 19
5 5 7 4 4 7 5 3 3 3 6 5 2 5 5 3 5 5 6 10 13 15 16 16 15 13 13 15 16 18 19 19 19 19 19 19 19 19 24 29 32 35 38 40 43 44 45 45 44 45 44 44 45 45 45 45 44 43 42 43 42 41 40 39 39 38 37 36 35 35 36 37 38 38 37 36 36 36 36 36 35 34 33 32 31 31 31 29 27 28 29 28 25 24 23 22 20
7 5 8 6 5 7 4 4 6 7 6 5 3 4 5 6 5 5 8 11 12 14 15 15 15 14 14 15 18 19 19 17 17 17 17 17 17 18 23 28 32 37 39 41 43 43 43 44 45 45 46 47 47 46 45 45 44 43 42 43 43 41 40 39 39 38 37 37 36 36 37 37 38 38 37 37 36 36 36 37 37 36 34 33 33 33 32 31 30 29 31 30 27 25 24 24 23
5 3 6 5 4 6 6 5 4 5 5 4 3 3 4 6 6 8 11 12 13 14 14 15 17 17 16 17 17 17 16 16 16 17 17 17 18 20 25 30 33 36 39 40 40 40 41 42 43 43 44 44 44 45 45 43 43 42 41 42 42 41 41 40 39 38 37 38 38 37 37 38 37 37 38 38 37 37 37 37 38 38 36 35 34 34 34 33 32 31 32 31 29 27 26 26 25
7 5 7 6 2 3 4 4 3 4 5 3 3 5 6 6 5 9 11 12 13 14 14 15 17 18 18 19 18 15 15 17 16 17 17 18 18 20 26 32 34 36 37 36 37 39 40 40 40 42 42 41 42 44 43 42 41 42 41 41 41 41 41 40 39 39 39 39 39 38 38 37 37 37 37 38 38 38 39 38 39 39 38 36 36 35 35 35 34 33 33 32 31 29 27 26 27
10 8 8 8 5 4 4 6 2 2 4 5 4 6 8 5 5 8 9 10 12 13 14 14 14 17 19 19 18 16 16 17 17 18 17 18 17 18 23 29 30 29 30 33 35 37 37 38 40 41 41 42 43 43 43 42 41 41 42 41 41 41 41 41 40 40 40 40 40 39 38 37 36 37 37 38 38 39 39 39 39 39 39 38 37 37 36 36 36 35 34 33 33 31 29 27 27
Wind_Direction
168 157 159 159 155 163 180 191 214 278 112 64 265 292 264 260 235 256 215 183 181 174 161 121 118 95 113 124 127 108 43 87 138 137 186 148 144 147 154 159 155 153 152 151 153 151 151 148 144 144 141 138 135 134 134 132 132 132 131 131 130 130 130 131 131 130 129 130 130 129 128 126 125 123 122 122 120 117 113 111 107 105 105 103 99 97 96 96 97 97 95 91 91 92 96 104 111
163 157 163 157 159 176 187 172 104 17 47 58 273 237 244 318 275 252 209 216 247 131 127 110 97 83 98 113 117 106 41 26 78 102 102 133 137 143 155 159 157 153 152 152 153 151 152 149 146 148 144 141 139 137 137 136 135 134 133 133 132 132 132 132 132 131 130 131 131 129 128 128 127 125 125 124 121 117 113 111 108 107 106 103 99 97 97 94 93 94 95 94 95 96 97 105 115
165 157 160 154 162 223 265 125 101 62 66 76 283 235 154 173 248 238 216 237 108 110 110 105 93 92 111 99 79 75 68 47 103 111 119 137 137 148 159 161 159 155 153 154 154 153 152 151 150 150 146 144 142 140 140 138 137 136 135 134 134 133 133 133 133 132 132 132 131 130 130 130 128 127 127 126 122 118 114 111 110 109 107 104 101 98 97 95 95 95 95 94 96 98 98 104 114
167 157 158 155 135 232 297 43 120 109 105 162 217 203 176 199 208 167 194 145 114 114 114 116 90 60 89 100 87 80 104 103 122 125 133 149 150 155 160 162 161 157 155 155 155 155 155 156 155 151 148 147 145 144 142 141 140 138 137 136 135 134 134 134 134 134 133 134 133 132 132 130 130 130 130 127 124 120 116 114 112 111 109 107 103 100 97 97 96 96 96 93 95 98 100 103 110
165 158 163 161 28 245 327 22 84 107 182 187 179 215 190 177 154 148 148 113 115 120 119 121 87 71 79 93 116 99 113 117 139 142 132 150 154 154 160 162 162 159 157 157 156 157 157 159 157 153 151 150 148 146 145 144 143 141 140 139 137 135 136 136 137 137 136 136 135 134 133 132 133 133 133 129 126 122 118 116 115 114 112 109 104 102 99 98 96 93 94 92 94 99 102 103 106
156 154 181 258 327 281 13 347 313 273 233 171 172 229 145 139 146 143 123 100 88 94 102 95 103 109 83 64 58 105 136 123 139 152 138 147 155 156 160 161 161 161 160 159 160 159 159 161 159 156 154 153 151 149 149 147 146 144 142 141 139 138 139 140 139 139 139 140 139 137 135 136 137 137 136 132 128 124 122 122 121 120 115 110 104 102 101 98 94 91 91 89 89 96 102 103 105
149 141 198 260 274 259 98 198 249 262 249 172 182 154 138 146 146 135 119 104 78 77 89 97 115 107 82 91 79 108 141 126 134 155 150 150 155 157 160 161 160 162 162 162 163 163 160 161 161 160 158 156 154 153 153 151 150 147 145 144 142 142 143 143 142 142 142 143 142 139 138 140 141 141 138 134 130 128 129 130 129 125 118 112 105 103 102 100 97 93 91 90 90 94 102 106 109
156 149 132 212 283 217 153 247 236 232 238 205 195 143 147 151 141 134 125 117 108 111 110 115 119 95 68 86 92 102 115 123 140 152 150 150 154 158 162 162 161 162 164 165 166 165 162 162 164 164 162 158 157 157 157 156 154 151 149 147 145 146 146 146 146 146 147 147 144 141 141 144 145 144 141 138 136 136 137 137 133 126 118 114 108 105 100 100 100 96 95 93 92 96 103 111 114
168 200 69 174 274 283 272 286 248 227 241 236 167 147 149 146 141 136 128 120 127 132 130 135 118 101 105 90 96 89 100 130 142 144 147 149 153 157 163 165 164 164 164 167 167 166 164 165 166 167 166 161 160 160 159 160 160 157 153 150 149 149 149 150 149 150 151 149 146 143 144 147 149 147 147 144 142 144 143 137 131 127 121 117 115 107 94 91 89 92 92 87 90 97 104 113 120
157 238 323 296 260 332 316 286 247 237 244 221 150 145 146 146 143 137 133 132 133 129 124 113 81 112 124 103 101 103 122 138 138 140 147 150 155 158 163 167 168 166 165 168 167 167 166 168 168 168 170 167 165 163 163 164 163 160 156 154 153 153 154 154 153 154 154 151 148 146 148 151 153 153 153 150 149 147 140 135 132 131 127 120 120 102 69 61 59 73 75 75 80 89 100 109 118
102 203 259 338 353 312 274 278 266 248 234 183 154 146 148 147 136 130 128 129 126 117 119 99 94 119 113 102 98 119 133 140 139 143 151 152 157 160 163 167 170 169 168 168 167 168 168 169 170 170 171 171 170 167 167 167 166 162 159 159 158 157 158 158 158 158 157 154 150 150 153 156 157 160 160 158 155 149 142 139 138 134 124 110 107 85 56 50 47 66 65 66 76 82 94 102 112
107 191 157 182 215 213 228 259 264 240 35 141 175 160 148 145 138 141 138 134 125 121 136 122 134 132 100 103 117 126 136 142 145 148 153 155 158 162 164 166 169 170 169 168 167 168 170 170 171 172 173 173 173 171 171 170 168 166 164 164 163 163 163 163 163 162 160 156 154 156 158 160 162 166 168 167 162 154 151 153 148 126 103 83 77 64 56 54 51 67 64 64 76 85 96 101 110
193 182 140 222 221 205 232 243 247 101 24 215 179 159 148 149 150 150 139 133 137 141 160 140 147 135 96 112 123 136 145 149 149 149 153 156 160 164 165 167 169 170 170 169 168 168 171 171 171 172 173 174 174 174 174 172 171 170 170 169 168 169 168 168 167 166 163 160 160 161 163 165 168 173 176 176 172 164 162 167 154 101 74 57 54 53 58 63 66 77 72 70 70 73 96 96 95
183 186 164 248 254 228 236 167 151 119 242 238 153 150 154 154 150 145 133 136 151 152 134 133 138 110 104 137 139 157 158 156 153 151 155 156 161 164 166 169 170 171 171 172 170 170 171 172 173 172 174 174 174 175 176 175 175 175 175 173 172 174 173 172 172 170 167 166 166 167 168 170 173 178 183 184 182 175 176 182 151 77 55 44 43 46 60 64 71 83 78 81 75 70 93 91 81
185 306 168 262 299 279 243 159 159 159 215 208 149 150 147 136 142 145 148 146 147 135 119 135 150 101 150 175 162 171 159 157 156 153 156 156 159 162 166 169 171 172 173 174 174 174 173 173 173 173 176 175 175 177 178 178 179 180 181 178 176 176 176 176 176 174 172 172 172 172 173 175 178 183 188 191 189 189 199 199 153 70 45 34 40 48 63 60 66 79 78 86 81 69 83 88 88
196 277 137 282 266 244 240 186 165 164 200 174 153 143 119 123 146 148 161 138 120 142 132 154 194 130 172 184 150 156 154 156 156 154 155 155 157 159 163 167 171 173 173 176 176 177 176 174 175 175 177 177 178 180 180 181 182 184 184 180 179 178 179 180 180 178 177 178 178 179 179 181 184 188 192 197 196 204 217 211 232 65 42 29 44 47 60 61 60 66 65 70 75 84 86 71 91
198 222 241 283 248 228 230 193 173 169 175 158 154 143 126 141 163 118 118 118 127 151 149 132 191 93 143 143 139 149 151 154 155 155 155 153 155 157 162 166 169 173 175 178 177 178 178 178 178 177 179 179 182 184 183 184 185 187 184 181 181 181 182 183 183 182 182 184 184 185 186 188 191 192 196 203 203 208 220 222 241 215 71 30 52 36 50 51 43 55 61 69 108 125 121 115 91
205 200 209 257 246 237 224 210 225 167 159 158 159 151 143 152 164 123 105 116 129 134 97 95 75 76 118 129 139 148 150 153 156 157 157 153 156 160 164 168 170 174 176 178 179 180 181 181 181 180 181 181 184 185 186 187 187 186 184 183 182 184 186 186 187 186 188 188 189 192 193 196 196 197 199 205 209 209 216 220 230 217 197 206 163 339 9 13 346 26 71 118 142 127 130 139 112
209 207 198 240 232 232 255 252 279 194 160 158 159 158 153 153 152 144 131 139 137 121 105 101 95 103 119 132 143 151 152 155 159 160 161 159 163 166 166 169 172 175 176 178 180 182 183 184 184 183 183 183 185 186 185 186 186 185 184 185 184 187 189 190 191 191 192 193 194 198 200 202 200 202 206 210 213 212 214 215 221 228 222 225 230 299 358 42 6 14 62 153 137 118 145 144 138
202 206 228 242 228 257 276 254 263 250 167 149 157 162 152 150 148 151 144 147 155 143 140 133 131 138 137 143 150 153 154 157 162 164 165 165 169 171 170 172 173 176 178 179 180 181 185 186 186 186 185 185 184 185 185 184 185 185 186 187 188 190 191 194 196 196 197 198 200 202 203 204 203 206 212 217 218 220 224 219 227 237 234 235 228 224 214 130 67 49 74 84 76 110 163 149 168
189 198 226 236 197 261 258 237 251 244 167 150 152 157 149 152 154 152 145 143 174 181 171 159 153 153 148 153 157 157 158 160 165 167 169 170 171 173 174 175 175 178 178 178 180 182 185 187 188 188 188 186 185 186 185 185 186 187 189 190 192 193 194 197 199 200 201 203 204 204 205 205 206 209 215 218 218 228 237 227 228 237 237 237 224 214 217 215 98 117 103 106 133 140 166 176 198
239 218 231 245 208 256 258 227 241 228 157 158 151 158 155 154 162 160 154 156 192 193 183 166 155 156 155 157 159 160 162 164 167 169 171 173 173 173 173 175 177 178 178 179 181 183 186 188 190 189 189 189 188 188 187 187 188 190 193 193 196 197 198 201 202 204 205 206 206 205 205 207 209 212 217 219 218 229 239 237 232 238 245 237 226 233 229 198 99 128 127 137 175 159 161 238 234
244 250 242 251 236 250 263 234 233 208 160 178 164 161 152 156 176 174 169 173 188 176 166 163 156 154 154 155 159 163 165 167 170 172 173 174 175 176 174 176 178 179 180 182 183 185 188 189 190 190 190 191 191 191 190 191 193 194 196 197 200 201 202 204 205 206 206 206 207 206 207 209 211 214 217 219 221 230 238 242 242 248 251 242 235 241 236 225 74 149 163 151 181 201 252 332 306
225 256 258 257 246 248 259 249 234 207 189 192 164 150 158 172 177 179 189 173 153 151 147 154 151 151 152 156 164 167 167 169 173 174 175 176 178 180 178 179 180 180 182 184 186 187 190 191 192 192 192 193 192 193 193 195 197 198 199 200 203 204 205 207 207 207 207 207 208 207 209 212 215 216 218 220 226 233 239 243 247 250 249 245 243 242 242 250 307 303 238 217 239 253 291 319 307
227 245 259 262 255 251 257 256 241 217 201 182 156 160 177 181 164 173 195 136 134 140 139 146 147 153 158 162 166 167 169 170 172 173 175 178 179 179 180 182 181 183 185 186 188 189 192 193 193 194 194 194 193 194 197 199 201 202 203 204 205 207 208 209 208 208 208 208 209 208 210 215 218 219 220 224 232 236 240 244 246 248 245 243 242 243 248 256 275 292 292 281 277 285 302 308 288
228 234 250 259 265 263 261 262 241 219 199 165 160 176 188 177 143 165 186 136 137 137 140 148 152 160 165 168 168 168 171 171 173 173 175 178 177 179 182 184 184 186 188 188 189 191 194 194 196 196 194 195 195 196 199 202 204 205 206 207 207 208 210 211 210 210 210 210 211 211 214 218 220 222 223 227 236 240 242 245 245 245 244 243 243 247 253 260 267 280 295 294 294 300 308 311 287
237 242 259 260 267 271 262 258 238 207 184 170 168 177 183 165 148 172 172 141 140 139 147 153 157 165 168 171 171 170 173 173 174 173 174 177 178 181 182 184 187 189 189 188 190 193 193 194 197 198 197 197 198 199 202 204 207 207 208 209 209 210 211 213 212 212 213 213 214 215 217 220 222 224 226 230 237 240 243 246 246 245 247 247 250 257 261 268 267 271 288 295 296 299 309 315 284
249 254 277 273 274 280 253 243 229 186 181 176 158 150 159 171 178 180 163 150 147 146 152 158 163 170 169 172 174 172 175 173 174 174 176 180 181 183 182 185 188 189 190 190 191 192 192 195 197 199 200 200 201 203 204 207 208 209 210 210 212 213 213 215 214 215 217 218 219 219 219 221 224 225 227 231 233 238 243 245 245 245 250 254 259 266 267 269 266 270 285 291 289 296 317 315 283
265 251 276 285 299 294 250 229 203 176 181 156 129 106 163 193 200 171 158 153 150 150 154 161 166 171 171 173 175 176 175 173 176 180 182 182 183 183 184 187 188 188 192 192 192 192 193 195 197 200 201 202 204 205 207 208 210 211 212 213 214 214 215 217 216 217 220 221 222 223 222 223 225 226 227 230 232 237 243 245 246 245 250 258 259 264 265 265 268 272 279 279 275 293 316 329 325
290 263 233 288 324 304 270 229 187 181 171 148 142 155 200 211 197 160 156 153 149 153 159 163 167 171 174 175 177 179 178 178 182 184 185 184 184 185 186 189 189 189 191 191 192 193 194 195 197 200 201 203 205 206 208 209 210 212 214 216 217 217 217 219 220 221 223 223 224 224 224 225 226 226 227 230 233 238 242 243 244 244 248 254 254 261 262 262 269 269 262 249 253 281 314 352 4
295 291 241 283 297 286 304 291 176 178 171 158 161 193 208 213 179 162 161 158 154 159 165 165 168 172 176 178 179 183 183 185 187 185 186 186 185 187 188 189 191 191 190 191 193 194 194 194 196 198 200 203 204 205 208 210 212 214 216 217 218 219 219 221 222 222 223 223 224 224 224 225 226 226 226 228 233 238 241 239 239 240 244 250 253 258 257 256 256 245 225 214 232 278 304 348 14
301 259 281 304 220 261 325 312 182 177 178 170 168 177 208 201 175 169 164 164 160 161 168 168 170 173 176 180 181 185 187 188 188 187 189 189 188 189 190 190 191 192 192 192 194 194 194 195 196 198 200 202 204 205 208 212 214 215 217 219 219 220 221 223 224 223 224 223 224 226 226 227 225 224 224 225 231 235 235 234 235 238 241 249 254 253 251 248 235 205 188 223 252 283 293 325 39
330 207 251 247 230 270 329 305 215 181 164 180 180 151 187 188 174 175 167 169 166 163 170 171 173 175 177 181 183 184 184 187 191 191 191 192 192 193 192 192 193 194 195 194 194 194 195 196 197 199 201 203 204 206 208 212 215 216 218 220 221 223 223 224 224 224 226 226 228 229 229 229 226 223 221 223 230 232 231 233 237 240 239 247 253 251 248 237 217 199 197 241 261 273 283 262 153
288 227 241 239 233 256 288 304 259 181 165 183 179 153 183 176 168 176 174 173 170 168 174 175 175 177 178 181 183 185 185 187 194 193 192 193 194 195 195 195 195 196 197 197 196 196 197 197 199 201 203 205 206 207 208 211 215 218 219 221 223 225 226 226 225 226 228 229 231 231 230 230 227 224 223 225 230 231 232 236 240 241 236 243 249 246 241 224 209 206 212 236 251 262 274 247 210
212 220 235 262 252 235 235 275 253 176 184 184 156 159 186 171 168 176 179 177 176 177 176 176 177 177 178 181 184 187 189 192 196 194 193 194 194 194 195 196 196 197 198 198 198 198 198 199 200 202 204 206 206 207 208 210 215 218 220 223 225 228 229 228 227 228 229 230 231 231 229 227 226 225 225 228 230 230 234 239 241 240 234 239 241 236 229 215 208 212 217 229 242 259 269 228 200
196 205 211 256 268 250 208 249 252 177 191 201 170 173 173 166 176 180 181 180 181 180 176 178 180 179 180 183 188 189 191 196 196 194 193 193 193 193 194 195 196 197 198 198 199 199 199 200 201 203 205 206 205 205 207 208 212 216 219 221 223 226 228 228 228 229 230 230 229 229 227 226 226 227 228 230 230 233 237 238 237 235 233 236 235 230 222 215 217 221 218 224 240 256 250 212 201
225 217 237 250 257 267 205 220 263 184 180 219 192 180 174 172 182 182 179 179 182 182 180 184 184 182 184 185 190 191 195 197 191 192 194 194 194 193 193 194 195 196 198 198 197 199 200 200 201 203 204 205 204 203 205 207 209 211 214 216 219 223 225 226 227 228 230 229 229 229 228 227 226 226 227 228 230 234 235 232 231 230 230 233 231 227 224 224 227 223 215 222 238 242 227 214 214
242 229 251 264 243 263 232 186 276 195 179 227 186 170 190 183 183 180 175 179 187 186 184 188 188 187 188 188 192 193 196 192 184 190 194 194 194 193 193 194 193 194 196 198 198 199 200 201 203 204 204 204 205 205 205 207 210 211 212 214 217 220 222 224 225 227 229 230 230 231 230 229 227 226 226 226 229 231 230 227 226 225 226 227 224 221 223 224 217 211 213 220 217 209 209 204 206
238 227 237 260 244 265 268 210 256 208 182 230 177 177 206 194 183 179 181 187 191 190 187 187 186 187 190 191 193 195 193 186 184 190 192 193 193 191 192 193 194 195 196 198 199 200 200 201 204 204 204 205 206 206 207 208 211 213 214 215 217 219 222 223 224 227 229 231 233 233 233 231 228 226 225 225 227 228 229 228 226 223 222 222 219 217 215 210 209 215 219 214 195 188 198 192 201
230 225 215 248 245 244 266 241 231 203 201 210 179 180 209 194 186 188 192 195 194 194 194 191 188 187 190 192 192 192 189 185 187 190 191 192 191 190 192 193 195 196 196 197 199 199 200 202 203 204 205 205 206 207 209 210 210 213 216 219 220 221 222 224 226 229 232 233 234 235 236 232 227 227 226 225 227 229 231 230 226 222 221 220 219 219 215 211 221 227 216 205 196 191 192 190 197
239 230 213 242 246 216 230 278 360 283 250 204 152 132 226 181 188 201 201 203 203 200 198 199 200 197 194 194 193 192 189 186 186 189 191 192 190 190 192 194 194 195 197 198 198 199 201 202 203 204 205 206 206 208 209 209 208 210 213 215 218 219 220 221 221 224 228 230 231 233 233 229 225 226 228 227 227 230 232 230 227 223 221 219 219 223 222 221 230 226 207 201 203 199 198 197 194
255 240 217 235 248 231 234 302 19 346 301 264 148 155 263 200 194 203 195 201 208 201 199 203 205 204 202 199 197 196 194 191 189 188 189 190 191 192 192 193 193 195 198 199 200 201 202 203 203 204 205 206 207 207 208 206 205 207 207 205 206 208 211 215 216 217 220 221 223 227 228 226 225 225 227 228 228 229 231 229 226 223 222 219 221 228 226 225 229 216 204 203 207 207 206 202 195
252 233 198 228 246 243 242 220 78 239 269 261 180 179 234 210 204 207 194 200 205 199 202 206 204 203 204 202 199 198 197 196 195 193 191 190 191 191 192 193 194 197 200 200 201 202 202 203 203 203 205 206 207 206 206 205 205 206 206 205 206 207 210 215 217 218 218 218 218 222 224 224 225 226 227 228 228 228 229 229 225 223 224 222 225 229 226 226 224 209 204 208 213 213 210 202 192
245 220 169 224 238 231 235 201 179 229 262 286 239 197 203 202 209 206 197 202 206 203 206 207 206 206 205 204 202 200 198 195 194 195 194 194 193 192 193 195 196 200 201 199 200 201 202 203 203 203 204 206 207 205 204 205 205 205 206 207 208 210 213 215 217 217 217 218 217 220 223 224 223 224 226 227 227 227 227 228 225 223 224 225 227 226 225 228 220 205 205 212 218 216 212 207 193
245 216 186 231 230 217 217 192 200 231 250 271 259 218 226 256 224 203 198 201 206 209 210 208 206 208 207 206 204 203 202 198 194 193 193 194 196 197 197 197 199 201 199 198 200 201 202 203 203 203 204 205 206 205 204 205 206 206 206 207 208 212 215 216 216 214 214 216 217 219 222 224 223 222 224 226 226 226 227 227 225 224 225 226 226 224 227 231 219 208 211 216 218 215 212 212 203
238 201 221 263 252 216 193 190 192 174 194 239 244 204 206 269 242 188 194 204 208 211 213 211 209 208 208 207 205 204 202 201 199 196 195 195 196 199 199 199 201 201 199 199 200 201 201 202 202 203 203 205 205 205 204 205 206 207 207 207 208 212 214 215 215 213 213 214 216 217 220 223 223 222 223 224 225 226 226 226 225 224 226 226 226 224 226 230 220 212 217 220 219 216 212 212 209
216 170 230 274 280 279 233 190 148 153 222 235 237 211 187 249 251 188 189 200 205 208 212 215 214 212 210 208 206 204 200 199 201 201 200 199 199 200 200 200 201 201 200 200 200 199 200 200 201 202 204 205 205 205 204 205 206 207 208 208 209 212 212 212 212 212 212 213 215 216 219 222 223 223 224 223 224 225 226 226 225 226 227 226 226 225 225 228 221 215 219 221 219 219 218 216 212
211 154 175 245 287 315 298 291 126 208 240 234 232 216 190 227 250 208 200 199 199 203 206 209 211 212 211 209 207 203 200 199 199 200 201 200 201 201 200 200 201 201 200 200 200 199 199 200 200 202 204 205 205 205 204 205 205 207 209 210 211 212 212 211 211 211 211 212 214 216 217 219 221 222 223 223 223 224 224 225 225 226 227 226 226 225 225 227 223 219 221 221 219 219 222 221 213
205 172 159 185 251 269 236 234 201 222 246 238 218 203 202 230 231 208 206 203 202 205 206 206 207 209 209 207 207 203 200 200 198 198 200 199 199 199 198 199 199 198 199 199 199 199 199 200 201 201 204 205 205 204 204 205 206 207 209 211 212 213 212 212 213 213 212 212 214 215 214 215 217 219 220 221 222 222 222 223 223 224 226 226 226 225 226 227 224 222 221 219 218 218 223 225 217
198 188 172 178 196 211 221 236 263 255 261 249 206 186 213 250 229 207 202 204 206 206 208 209 207 206 206 204 203 201 199 199 199 199 198 199 199 198 197 197 197 197 198 199 199 198 198 200 201 202 204 205 204 204 204 205 206 207 209 211 213 213 212 213 214 215 215 213 214 214 215 215 215 218 219 221 222 221 221 223 223 224 226 227 226 226 226 227 226 223 221 219 218 221 226 228 224
205 187 172 195 198 189 203 206 218 240 257 261 216 182 199 215 221 205 197 205 208 205 209 212 210 208 205 202 200 199 200 199 199 200 199 200 199 198 198 197 197 197 197 197 198 198 198 199 200 202 204 204 204 204 204 205 206 207 209 210 212 212 212 213 215 217 217 215 215 214 215 215 216 220 222 223 223 222 221 223 224 226 227 227 226 226 226 227 226 223 221 221 222 226 229 228 224
209 168 178 210 190 169 222 213 185 194 246 251 221 207 216 218 243 217 197 207 209 207 212 213 213 211 202 200 201 201 203 201 200 201 201 202 201 199 198 197 198 198 197 197 198 197 198 199 200 201 203 203 203 204 204 205 206 207 208 209 211 211 212 213 214 217 218 218 217 215 215 216 218 221 223 223 223 222 222 223 224 226 227 227 226 226 226 226 225 222 221 222 224 229 231 227 222
181 169 193 202 171 181 227 250 218 131 242 247 209 230 265 271 274 248 203 207 209 210 216 214 213 206 194 198 202 203 204 201 200 201 201 202 201 199 199 198 198 197 197 198 198 198 198 199 199 201 203 203 203 203 204 205 206 206 208 209 210 210 210 211 213 215 218 219 219 218 217 218 218 220 222 224 224 223 223 223 224 226 227 227 227 227 228 227 225 223 222 223 225 229 231 228 224
163 194 192 165 181 206 200 211 248 228 237 265 235 213 215 197 249 249 196 203 213 214 217 217 214 203 196 202 204 205 204 201 201 201 202 202 200 200 200 199 199 197 198 199 200 200 199 199 200 200 202 203 203 204 204 205 205 205 207 209 210 210 210 211 213 215 216 217 219 219 218 219 219 220 222 223 224 224 223 222 224 226 226 227 228 228 228 227 226 225 224 225 227 230 232 229 226
209 198 175 156 188 211 181 180 221 217 228 272 273 230 213 200 223 214 193 202 210 213 215 217 215 205 201 207 208 207 204 202 202 201 203 203 200 201 201 200 200 199 200 201 200 199 199 201 201 201 202 203 203 204 204 205 205 205 207 209 210 211 211 211 212 214 215 216 218 219 219 219 219 220 221 222 224 223 222 221 222 225 226 226 228 229 228 227 227 227 225 225 227 229 232 231 229
229 173 178 179 176 192 188 181 192 199 220 254 271 261 236 225 207 184 194 206 207 209 211 214 214 208 206 209 209 205 200 200 202 201 202 202 201 202 201 201 200 200 201 201 199 199 200 201 202 203 204 204 204 204 204 205 205 206 207 208 210 211 211 212 212 213 213 215 218 219 220 220 220 220 221 221 222 223 223 222 222 223 224 225 228 229 228 227 228 228 227 227 226 226 229 231 231
214 198 200 204 185 179 198 203 173 171 191 204 234 255 252 247 208 182 192 205 207 209 209 213 215 209 209 212 209 201 197 200 201 200 202 201 200 202 202 203 202 200 201 199 198 199 201 201 202 203 204 204 204 205 205 205 205 206 207 208 209 210 211 212 212 213 214 216 218 219 220 221 220 221 220 220 221 222 223 223 223 223 222 224 228 229 229 227 227 229 228 228 227 225 226 231 232
204 206 206 200 185 140 179 230 254 154 187 183 198 249 260 250 202 189 196 204 210 212 210 216 218 211 212 215 211 200 196 201 200 199 201 200 199 200 201 202 201 199 198 197 199 200 200 201 202 203 204 204 205 205 204 205 205 206 208 208 209 209 210 211 212 213 215 216 218 220 220 220 221 221 221 220 220 221 222 223 224 224 222 223 227 230 230 228 227 228 228 228 227 226 226 229 232
Height
771 773 774 776 776 778 779 780 792 793 792 802 799 797 791 780 780 781 782 780 779 776 768 769 768 769 776 781 784 786 788 790 795 804 806 793 789 793 794 797 799 801 802 803 805 807 808 810 811 812 813 814 815 817 818 819 821 822 823 824 824 825 826 827 828 829 830 831 832 832 832 833 833 833 834 834 834 834 834 834 834 834 834 834 835 835 835 835 835 835 835 835 835 835 835 834 835
771 773 774 776 776 779 782 780 795 798 796 806 799 793 787 778 782 782 781 779 776 770 765 767 768 771 774 774 777 783 788 787 787 790 792 790 791 794 795 797 799 801 802 804 806 807 809 810 811 813 814 815 817 818 819 820 822 823 824 825 826 826 827 828 829 830 831 832 832 833 833 833 834 834 834 835 835 835 835 835 835 835 835 835 836 836 836 836 836 836 836 836 836 836 836 835 835
771 772 773 776 777 778 781 783 795 800 802 808 798 787 783 783 784 779 776 774 769 765 766 768 770 773 776 779 780 786 792 787 785 786 789 791 792 794 797 798 800 802 803 804 806 808 809 810 813 814 815 816 817 819 820 821 823 824 825 826 826 827 828 829 830 831 832 833 833 833 834 834 835 835 836 836 836 836 836 836 836 836 836 837 837 837 837 837 837 837 837 837 837 837 837 836 837
770 772 773 774 779 781 785 791 795 799 804 806 798 785 780 782 779 775 772 768 765 764 768 770 775 773 775 786 784 787 792 788 786 786 789 791 790 793 796 798 801 802 804 805 807 808 810 812 814 815 816 817 819 820 821 823 824 825 826 827 827 828 829 830 831 832 833 834 834 834 834 835 835 836 837 837 837 836 836 836 836 837 837 838 838 838 838 838 838 838 838 838 838 838 838 837 837
771 774 774 774 782 785 788 794 795 798 798 795 793 783 776 776 774 774 770 766 764 766 769 771 779 775 774 783 783 788 791 787 787 785 787 790 790 793 796 799 801 802 804 806 807 809 811 813 814 816 817 818 819 821 822 824 825 826 826 827 828 829 830 831 832 833 834 834 835 835 835 836 836 837 837 837 837 837 837 837 838 838 838 839 839 839 839 839 839 839 839 839 839 839 839 838 838
771 775 775 775 780 781 789 796 795 797 786 781 786 778 772 771 771 772 769 767 765 766 768 771 778 778 782 782 780 785 785 785 787 786 786 789 791 793 796 799 801 803 804 806 808 810 812 813 815 816 818 819 821 822 823 824 825 826 827 828 829 830 831 832 833 834 835 835 835 836 836 836 837 838 838 838 838 838 838 838 839 839 839 839 839 840 840 840 840 840 840 840 840 840 840 839 839
771 776 778 781 782 781 796 800 795 794 779 772 777 773 771 769 768 769 771 773 772 770 769 773 773 778 789 784 783 784 781 784 784 786 786 788 793 794 797 799 801 803 804 807 809 811 812 814 816 817 819 820 821 823 824 825 826 827 828 829 830 831 832 833 834 835 835 836 836 836 836 837 838 838 839 839 839 839 839 839 839 840 840 840 840 841 841 841 841 841 841 841 841 840 840 840 840
771 777 778 787 792 789 798 797 791 789 776 768 767 767 768 766 766 770 774 775 777 775 773 774 770 782 792 783 789 787 781 784 784 787 787 789 794 795 798 799 801 803 805 807 809 811 813 815 816 818 819 821 822 823 825 826 827 828 829 830 831 832 833 834 834 835 836 837 837 837 837 838 838 839 839 839 839 839 840 840 840 840 841 841 841 841 841 842 841 841 841 841 841 841 841 840 840
771 776 780 789 796 794 795 793 787 781 774 767 763 763 763 763 765 769 774 775 775 776 776 774 770 784 792 786 791 787 782 786 785 788 789 791 795 796 799 799 802 803 806 808 810 812 813 815 817 819 820 821 823 824 825 826 827 828 829 830 832 833 833 834 835 836 836 837 837 837 838 838 839 839 840 840 840 840 840 841 841 841 841 842 842 842 842 842 842 842 842 842 841 841 841 841 841
774 778 783 791 795 798 795 788 783 777 771 765 762 761 762 763 765 768 773 776 774 776 776 771 773 783 789 791 792 787 785 786 786 790 791 793 795 797 799 800 802 803 806 808 810 812 814 816 817 819 821 822 823 824 826 827 828 829 830 831 832 833 834 835 836 837 837 837 837 838 838 839 840 840 840 840 841 841 841 842 842 842 842 842 842 842 842 842 843 842 842 842 842 842 841 841 841
780 781 783 795 799 800 794 785 781 775 768 763 762 759 759 761 765 770 772 775 774 777 776 773 781 784 787 792 792 787 786 787 787 790 792 794 797 798 800 802 804 804 807 808 811 813 814 816 818 820 821 822 824 824 826 827 828 829 831 832 833 834 835 836 836 837 837 838 838 838 839 840 840 840 841 841 841 842 842 842 842 843 842 842 842 842 843 843 843 843 843 842 842 842 842 842 842
785 786 786 800 799 793 787 784 780 773 768 767 766 759 757 760 765 771 773 776 775 779 777 774 781 780 789 796 790 787 786 788 789 790 793 795 797 799 801 803 804 806 807 809 811 813 814 816 818 820 821 823 824 825 826 827 829 829 831 832 833 834 835 836 837 838 838 838 838 839 840 840 841 841 841 842 842 842 842 843 843 843 843 843 843 843 843 843 843 843 843 843 843 843 842 843 842
783 784 789 798 790 786 783 782 778 773 773 768 765 757 755 760 766 768 771 776 776 781 777 771 774 775 790 795 789 788 788 789 789 791 794 796 798 800 802 803 805 807 808 810 811 813 815 816 818 820 821 823 824 825 826 827 829 830 831 832 834 835 835 837 837 838 838 838 839 839 840 841 841 841 842 842 843 843 843 843 843 843 843 843 843 843 844 844 844 844 844 843 843 843 843 843 843
777 778 785 792 784 782 779 780 779 778 778 765 759 756 755 760 762 763 768 778 779 776 772 767 769 778 790 793 792 791 788 789 790 792 794 797 799 800 803 804 805 807 809 810 812 813 815 816 818 820 821 823 824 825 827 828 829 830 832 832 834 835 836 837 837 838 838 839 839 840 841 841 842 842 842 842 843 843 843 843 843 843 843 843 844 844 844 844 844 844 844 844 844 844 843 843 843
773 774 781 788 785 782 776 777 778 781 777 761 757 755 757 759 757 763 765 773 778 768 767 769 768 778 787 788 791 787 785 788 789 792 794 797 799 801 803 804 806 807 809 811 812 814 815 817 818 820 821 822 824 825 827 828 829 830 832 833 834 835 836 837 837 838 838 839 839 840 841 841 842 842 843 843 843 844 844 844 843 844 844 844 844 844 845 845 844 844 844 844 844 844 843 843 843
767 772 783 789 787 785 776 770 773 779 771 757 755 752 762 763 755 763 760 760 771 767 768 773 769 773 780 780 781 780 783 788 789 793 794 797 799 801 804 804 807 807 809 811 812 814 815 817 818 820 821 822 824 825 827 828 829 831 832 833 834 835 836 837 837 838 838 839 840 840 841 842 842 843 843 843 844 844 844 844 844 844 844 844 845 845 845 845 845 844 844 844 844 844 844 844 843
765 775 790 792 788 785 773 766 769 770 762 755 754 752 764 769 759 759 755 756 767 771 770 771 769 767 773 776 777 778 783 787 789 793 794 797 798 800 803 804 806 807 810 811 812 814 815 817 817 819 820 822 823 824 827 827 829 830 831 833 834 835 836 837 837 838 839 839 840 841 842 842 842 843 843 844 844 844 844 844 844 844 845 845 845 846 845 845 845 845 845 845 844 844 844 844 844
771 782 793 794 787 779 766 760 758 755 755 755 753 752 760 767 764 759 761 767 768 772 773 771 771 769 772 775 777 781 784 787 789 791 793 795 797 799 801 803 805 806 809 810 812 813 814 816 817 819 820 821 823 824 826 827 829 830 831 833 834 835 836 837 837 838 839 839 840 841 842 842 843 843 843 844 844 844 844 844 845 845 845 845 846 846 846 846 845 845 845 844 844 844 844 844 844
773 780 788 787 777 767 755 753 751 749 752 751 751 751 754 759 761 758 767 777 772 776 779 775 778 776 775 776 779 783 783 787 789 790 792 793 796 797 799 801 803 805 807 809 811 813 814 816 817 818 819 821 823 824 826 827 829 830 831 832 833 835 835 836 837 838 839 839 840 841 842 842 843 843 843 844 844 845 845 845 845 845 845 846 846 846 846 846 845 845 845 845 844 844 844 844 844
768 774 786 777 762 759 750 748 747 745 746 748 752 751 752 755 754 758 768 777 775 777 778 777 783 781 778 778 779 782 784 787 788 790 792 793 795 796 798 799 801 803 806 808 810 812 814 815 816 818 819 821 822 824 825 827 828 829 830 832 833 834 835 836 837 838 838 839 840 841 842 842 843 843 844 844 844 845 845 845 845 845 846 846 846 846 846 846 845 845 845 845 845 845 844 844 844
763 768 775 763 754 757 748 744 742 741 744 746 751 753 756 754 751 758 765 777 781 775 769 768 774 775 776 777 778 781 783 786 787 790 791 793 795 796 798 799 801 803 805 808 809 811 813 814 816 817 819 820 822 823 825 826 827 829 830 831 832 833 834 835 836 837 838 839 840 841 842 842 843 843 844 844 844 845 845 845 845 845 846 846 846 846 846 846 845 845 845 845 845 845 845 844 844
761 759 758 751 752 756 744 739 739 739 743 745 750 755 756 753 754 757 760 772 773 764 760 759 762 765 768 772 775 779 781 784 786 788 790 792 794 795 798 799 802 803 805 807 808 810 812 814 815 816 818 819 821 823 824 826 826 828 829 830 831 833 834 835 836 837 838 839 840 841 841 842 843 843 844 844 844 844 845 845 845 845 845 846 846 846 846 846 846 845 845 845 845 845 845 844 844
763 758 749 748 749 751 742 738 738 737 745 749 749 748 748 754 759 755 754 757 752 747 752 756 758 759 763 768 773 777 779 782 784 786 788 790 793 794 796 798 800 802 804 806 807 810 811 813 815 816 817 819 820 822 824 825 826 827 828 830 831 832 833 834 835 836 837 838 839 840 841 842 842 843 843 843 844 844 844 845 845 845 845 845 846 846 846 845 845 845 845 845 845 845 845 844 844
762 760 750 746 745 745 738 736 737 736 743 744 741 744 749 756 757 754 754 749 743 745 750 755 759 760 763 767 771 775 777 780 782 785 787 789 792 794 796 798 800 801 803 805 807 808 810 812 813 815 817 818 820 821 823 824 825 827 828 829 830 832 833 834 835 836 837 838 839 840 840 841 842 843 843 843 844 844 844 844 845 845 845 845 845 845 845 845 845 845 845 845 845 845 844 844 844
759 758 750 744 742 739 733 733 735 734 737 737 740 748 749 747 747 752 754 748 745 747 751 756 761 764 766 767 770 773 776 779 782 785 788 790 792 794 797 798 799 801 802 804 806 807 809 811 812 814 815 817 819 820 822 823 825 826 827 828 829 831 832 833 834 835 836 837 838 839 840 841 841 842 842 843 843 843 844 844 844 845 845 845 845 845 845 845 845 844 845 844 845 845 844 844 844
753 751 747 743 740 735 732 732 732 731 733 734 742 750 748 741 744 754 753 748 747 747 753 758 762 766 768 769 769 771 774 777 780 783 786 789 791 794 795 797 799 800 801 803 805 806 808 810 811 813 814 816 818 819 821 822 824 825 826 827 829 830 831 832 834 835 836 836 837 838 839 840 841 842 842 843 843 843 844 844 844 844 844 844 844 844 844 844 844 844 844 844 844 844 844 844 843
743 744 743 739 738 733 731 732 727 728 730 731 741 750 749 742 748 761 754 746 748 751 757 759 762 767 768 769 769 770 773 774 778 781 784 787 789 791 793 796 797 798 800 802 803 805 807 809 810 812 813 815 817 819 820 821 823 824 825 827 828 829 831 832 833 834 835 836 836 838 839 840 841 841 842 842 842 843 843 843 843 844 843 844 844 844 844 844 844 844 844 844 844 844 844 843 843
739 741 742 738 736 734 730 729 726 727 732 729 735 748 751 747 750 755 749 745 747 752 759 760 764 767 767 769 770 770 772 774 777 779 781 784 785 788 791 793 795 797 799 800 802 804 806 807 809 811 812 814 816 818 819 821 822 823 825 826 827 829 830 831 832 833 834 835 836 837 838 839 840 840 841 841 842 842 842 842 843 843 843 843 843 843 844 844 844 844 844 844 844 844 844 843 843
739 740 747 743 736 736 729 726 724 726 733 727 733 757 761 754 751 747 744 745 747 753 759 761 764 767 767 769 770 771 772 773 776 777 778 781 783 786 789 791 793 795 797 799 802 803 805 806 808 810 811 813 815 817 818 820 821 822 824 825 827 828 829 830 831 832 833 834 835 836 838 838 839 840 840 841 841 841 842 842 842 842 842 842 843 843 843 843 843 843 843 843 843 844 844 843 843
742 741 747 748 747 742 726 722 723 725 731 721 732 768 772 756 749 745 743 745 750 757 760 761 765 766 768 769 770 772 771 772 773 775 777 779 783 785 787 790 791 794 796 799 800 802 803 805 807 808 810 812 813 816 817 818 820 822 823 824 826 827 828 829 830 831 832 834 835 836 837 837 838 839 839 840 840 841 841 841 841 841 842 842 842 842 843 843 843 843 843 843 843 843 843 843 842
745 747 748 753 760 749 727 722 726 731 731 717 731 767 768 755 751 745 742 744 749 758 760 761 764 766 767 768 770 771 769 770 771 773 776 778 781 783 786 788 790 793 795 797 798 800 802 803 805 807 808 810 812 814 816 817 819 821 822 823 825 826 827 828 829 831 832 833 834 835 836 836 837 838 838 839 839 840 840 840 841 841 841 841 842 842 842 842 842 843 843 843 843 843 843 842 842
747 756 759 758 760 751 733 723 725 732 731 720 734 763 764 754 751 743 741 744 747 755 759 759 762 764 766 767 768 770 769 768 770 772 775 777 780 781 784 786 788 791 792 795 797 799 801 802 804 805 807 809 811 813 815 817 818 820 821 822 824 825 826 828 828 830 831 832 833 834 835 835 836 837 837 838 839 839 839 840 840 840 841 841 841 841 841 842 842 842 842 842 842 842 842 842 842
753 759 764 760 758 756 744 728 719 723 729 729 736 755 761 754 749 744 742 745 748 754 757 758 760 761 763 766 767 768 769 769 770 771 772 775 777 779 782 784 786 789 790 793 795 797 799 800 802 803 805 807 810 812 814 816 817 819 820 821 823 824 825 826 827 829 830 831 832 832 833 834 835 836 836 837 838 838 838 839 839 840 840 840 840 841 841 841 841 842 842 842 842 842 842 842 842
762 760 761 757 754 756 752 738 723 720 729 735 737 745 753 748 745 745 743 744 749 754 756 756 757 759 761 763 766 767 768 768 767 767 769 772 774 777 779 782 784 787 789 791 793 795 797 798 800 802 804 806 808 810 813 815 816 818 819 821 822 823 824 825 827 828 828 830 830 831 832 833 834 834 836 836 837 837 838 838 839 839 839 840 840 840 840 840 841 841 841 842 842 842 842 842 842
764 762 761 758 753 753 755 745 730 725 731 738 743 747 749 747 745 745 743 743 748 751 752 753 754 756 759 761 763 764 764 764 763 762 765 768 771 774 777 780 782 785 787 790 792 794 796 797 799 800 803 804 807 809 811 814 815 817 818 820 821 822 823 824 825 826 827 828 829 830 831 832 833 833 834 835 836 837 837 837 838 838 839 839 839 839 839 840 840 840 841 841 842 842 842 842 842
756 756 757 758 755 752 749 741 727 725 737 742 745 748 749 750 749 746 744 743 748 751 751 753 754 754 756 759 760 760 761 760 757 759 763 765 768 771 774 777 780 782 785 788 790 792 794 796 797 799 800 802 805 808 810 812 814 815 817 818 819 820 821 822 824 825 826 827 828 829 830 831 832 832 833 834 835 835 836 836 837 837 838 838 838 838 838 839 839 840 840 841 841 841 841 841 842
750 753 755 754 756 753 744 738 725 721 738 744 741 746 748 748 746 743 743 745 750 753 754 754 753 753 754 756 757 757 756 754 753 758 761 763 765 768 772 774 777 780 783 785 787 789 791 793 794 796 798 801 803 804 806 808 810 812 813 814 815 817 819 820 822 823 824 825 827 828 829 830 830 831 832 833 834 834 835 835 836 836 837 837 837 837 838 838 838 839 840 840 841 841 841 841 841
749 752 755 755 755 750 739 735 726 720 737 744 740 748 750 745 743 741 742 747 749 748 750 751 750 750 750 751 753 752 751 750 753 756 758 760 763 766 769 771 774 777 779 782 783 785 788 790 791 793 796 798 799 801 803 805 806 808 810 811 813 815 817 818 819 821 822 824 825 826 827 828 829 830 831 831 832 833 833 834 834 835 835 836 836 837 837 837 838 839 839 840 840 840 841 841 841
749 750 755 757 751 746 739 733 727 724 737 744 742 750 751 743 740 740 740 740 740 738 738 741 743 746 747 747 749 749 750 751 752 753 755 757 759 762 766 768 770 773 775 778 780 782 785 787 789 791 793 795 797 799 801 802 804 806 808 810 812 814 815 817 818 820 821 823 824 825 826 827 827 828 829 830 831 831 832 833 833 834 834 835 835 836 836 837 838 838 839 839 839 840 840 840 841
748 749 755 755 745 747 748 737 730 727 731 736 740 748 750 746 745 743 738 735 735 735 734 735 736 739 739 739 741 744 747 750 750 751 751 753 756 759 761 763 766 769 772 774 777 780 781 783 785 787 789 791 794 796 797 800 803 806 808 810 811 813 815 816 818 819 820 821 822 823 824 825 826 827 828 829 829 830 831 831 832 833 833 834 834 835 835 836 837 837 838 839 839 840 840 840 840
747 745 750 749 741 745 746 738 733 729 728 728 737 755 756 751 754 750 741 738 738 738 739 740 738 735 734 734 736 738 740 742 744 747 748 749 752 754 756 759 762 765 768 769 772 774 776 778 780 783 786 788 791 793 795 799 802 805 807 809 812 813 814 815 816 817 817 819 820 820 822 823 824 825 826 827 828 829 829 830 831 831 832 832 833 834 834 835 836 837 837 838 839 839 840 840 840
749 741 739 739 737 740 741 739 739 744 746 732 737 769 771 752 752 751 744 744 743 740 741 742 739 737 737 737 736 735 735 735 736 738 741 743 746 749 752 755 758 760 762 764 766 769 771 774 777 780 783 785 788 790 794 797 800 802 804 806 808 809 810 811 811 812 814 815 817 818 820 821 823 824 825 825 826 827 828 829 829 830 830 831 832 833 834 835 835 836 837 838 839 839 839 840 840
753 735 728 732 734 739 741 742 746 755 755 734 730 762 772 758 753 748 743 745 742 739 740 739 737 737 736 735 733 733 733 733 733 734 735 738 740 744 747 750 753 754 756 759 762 765 768 771 774 777 779 782 785 788 791 794 796 799 801 802 803 804 805 806 807 809 811 813 815 817 818 819 821 822 823 824 825 826 826 827 828 828 829 830 831 832 833 834 835 835 836 837 838 839 839 839 840
747 726 724 730 733 738 740 742 749 748 745 738 730 742 761 763 753 741 738 744 744 741 739 736 734 733 731 729 728 728 728 728 730 732 733 735 736 738 741 744 746 747 750 755 759 762 765 767 770 773 776 778 781 785 788 790 792 794 797 799 800 801 802 803 805 807 809 812 814 815 816 817 819 820 821 822 823 824 825 825 826 827 828 829 830 831 832 833 834 835 836 837 838 838 838 839 839
734 720 723 726 728 734 734 740 748 743 746 755 741 737 758 762 744 734 737 745 748 743 737 732 729 728 726 725 724 723 723 722 723 726 728 729 731 733 734 736 739 741 746 751 754 757 760 763 767 769 772 776 778 782 784 787 789 791 793 795 797 798 800 801 804 806 808 810 812 813 814 816 817 818 820 821 822 822 823 824 825 826 826 827 828 830 831 832 833 834 835 836 836 837 837 838 838
723 718 722 723 725 730 732 739 745 746 757 763 745 740 759 760 741 738 744 746 745 738 730 726 723 721 720 720 720 719 720 721 720 721 721 722 724 726 729 732 735 738 742 746 749 753 757 760 764 766 769 772 775 778 781 783 786 789 791 792 794 796 798 800 802 804 806 808 809 811 812 813 815 816 818 819 820 821 821 822 823 824 825 826 828 829 830 831 832 833 834 834 835 835 836 837 837
717 722 728 730 731 730 734 736 740 755 766 757 739 735 749 758 743 734 735 731 729 728 726 724 719 717 716 714 714 714 716 717 717 718 718 718 720 722 725 729 733 736 740 743 746 750 753 757 760 762 765 768 771 774 777 780 782 785 787 789 791 793 795 798 800 801 803 805 807 808 809 811 812 814 815 817 818 819 820 821 821 823 824 825 826 827 829 830 830 832 832 833 833 834 835 835 836
719 727 733 741 743 739 742 743 746 765 768 746 732 729 742 754 739 722 718 711 709 715 716 716 714 712 710 708 708 708 710 712 713 715 717 717 720 722 725 728 731 734 738 741 744 747 750 753 755 758 761 764 767 770 773 776 779 781 784 786 788 790 792 794 796 798 800 802 803 805 807 809 810 812 813 814 815 816 818 819 820 821 822 823 825 826 827 828 829 830 831 831 832 833 834 835 835
723 730 737 753 761 758 760 759 756 763 756 734 726 730 740 740 720 707 708 702 699 700 699 700 701 701 702 702 702 703 705 707 709 711 713 715 717 719 721 724 727 731 734 737 740 743 746 749 751 754 756 759 762 766 769 771 774 777 780 782 785 787 790 792 793 795 797 799 800 802 804 805 807 808 810 811 812 814 815 817 818 819 820 821 823 824 826 827 828 828 829 830 830 832 833 833 834
724 731 738 754 766 773 777 769 762 759 746 727 721 730 738 729 707 695 697 694 688 687 687 687 687 689 691 692 694 697 700 702 704 706 708 710 711 712 715 718 722 725 729 732 736 739 742 745 747 750 751 755 758 762 765 767 769 772 775 778 781 784 786 789 791 793 795 796 798 799 801 802 804 805 806 807 809 811 813 814 816 817 818 820 821 823 824 825 826 826 827 828 829 830 831 832 833
718 718 727 741 748 760 769 764 760 756 743 731 729 734 733 722 701 683 681 682 678 677 678 677 678 679 681 684 689 694 696 697 699 700 703 704 704 706 709 712 716 719 723 727 731 734 738 740 742 745 747 751 755 758 761 763 765 768 771 774 777 780 783 785 788 790 792 794 795 796 798 799 800 802 803 805 807 810 811 812 814 815 817 818 820 821 823 824 824 825 826 827 828 829 830 831 832
713 708 721 732 729 734 744 743 740 740 739 734 731 728 715 701 687 673 673 676 674 675 674 674 677 678 680 687 690 691 692 692 694 696 698 698 699 701 704 707 711 714 718 722 725 729 732 735 738 740 743 746 750 753 756 759 762 765 768 770 773 776 779 782 785 787 790 791 793 794 795 796 798 799 801 803 805 807 809 811 812 813 815 816 818 819 821 821 822 823 824 825 826 827 828 829 830
709 711 720 717 708 716 734 740 732 734 745 736 721 717 708 698 689 676 674 678 677 677 675 675 678 678 682 687 687 686 686 686 688 690 691 693 694 697 699 702 706 709 714 716 719 723 726 730 733 736 740 743 746 749 752 755 758 762 765 768 770 773 776 779 781 784 786 789 791 792 793 794 795 797 799 801 803 804 807 808 810 811 813 815 816 817 818 819 821 821 822 823 824 825 827 828 829
703 713 710 703 706 711 724 741 740 741 750 736 717 714 711 709 701 683 679 684 681 679 677 676 677 679 682 682 680 679 678 679 682 683 685 687 690 692 694 697 700 703 707 710 713 717 721 725 728 732 735 738 742 745 748 752 754 758 761 764 767 770 772 775 777 780 783 786 788 789 791 792 793 795 797 798 800 802 804 806 808 809 811 812 814 815 816 818 819 819 820 821 822 824 826 827 828
687 695 691 698 719 724 724 735 740 745 751 736 720 714 708 706 698 684 683 685 680 678 677 677 677 678 679 677 674 673 674 677 679 680 683 684 686 688 690 693 696 699 702 705 709 714 718 721 724 727 730 732 737 741 744 748 751 754 757 760 763 766 769 772 774 777 780 782 784 786 788 789 790 792 794 796 798 799 801 803 805 807 808 810 811 813 814 816 816 817 818 819 820 822 824 825 826
680 687 687 690 704 712 716 720 722 732 744 738 728 721 707 694 684 676 677 677 675 675 674 674 673 671 671 669 667 669 672 674 675 676 678 679 681 683 685 688 691 694 698 701 707 712 714 718 721 724 727 730 734 737 740 744 747 750 754 757 760 763 766 769 771 774 776 778 780 782 784 786 788 790 791 793 795 797 798 800 802 804 806 807 809 810 812 813 814 815 815 817 818 820 821 823 824
688 695 697 694 693 697 704 709 707 713 728 734 734 726 702 681 671 665 664 666 667 668 668 667 664 662 662 660 659 662 666 667 668 669 671 673 675 677 680 684 686 690 694 699 704 707 710 714 718 721 724 728 731 734 737 741 744 747 750 753 756 759 762 765 768 770 772 774 776 778 781 783 785 787 788 790 792 793 795 797 799 800 802 805 806 807 809 810 811 812 813 814 816 817 819 820 822
682 689 691 691 693 698 710 718 709 702 710 716 721 722 697 669 663 658 655 658 659 659 661 661 658 657 655 652 652 655 658 660 661 662 665 667 670 673 676 680 684 688 693 697 700 703 707 711 714 717 721 723 725 729 733 737 740 744 746 749 752 755 758 761 764 766 768 770 772 774 777 780 782 784 786 787 789 791 793 794 796 797 800 802 803 804 806 807 808 809 810 812 814 815 817 818 820